Location: Mt. Pisgah State Park
(41.8016°N, 76.6679°W)
Time: 13:16:03
(UTC-05:00)

Hubble Space Telescope - Visible Passes

Search period start: 21 January 2019 00:00
Search period end: 31 January 2019 00:00
Orbit: 537 x 540 km, 28.5° (Epoch: 20 January)

Date Brightness Start Highest point End Pass type
(mag) Time Alt. Az. Time Alt. Az. Time Alt. Az.
21 Jan 3.3 05:08:34 12° S 05:08:34 12° S 05:10:10 10° SSE visible
21 Jan 3.4 06:47:46 10° SSW 06:48:44 11° S 06:49:43 10° S visible
22 Jan 3.4 04:58:45 12° SSE 04:58:45 12° SSE 04:59:39 10° SSE visible
23 Jan 3.6 04:48:54 10° SSE 04:48:54 10° SSE 04:49:02 10° SSE visible
